This is the latest recevied weather packets stored in our database for station/object CA3DJL-10. If no packets are shown the sender has not sent any weather packets the latest 10 day(s).
| Time | Temp. | Humidity | Pressure | Rain* | Wind** | Luminosity | Snow |
|---|---|---|---|---|---|---|---|
| 1777664168 | 182.78° C | 100% | - | - | - | - | - |
| 1777663267 | 182.78° C | 100% | - | - | - | - | - |
| 1777662366 | 182.78° C | 100% | - | - | - | - | - |
| 1777661465 | 182.78° C | 100% | - | - | - | - | - |
| 1777660564 | 21.11° C | 45% | 989 hPa | - | - | - | - |
| 1777659662 | 21.11° C | 45% | 989 hPa | - | - | - | - |
| 1777658761 | 20.56° C | 47% | 989 hPa | - | - | - | - |
| 1777657860 | 19.44° C | 48% | 990 hPa | - | - | - | - |
| 1777656959 | 19.44° C | 48% | 990 hPa | - | - | - | - |
| 1777656058 | 18.89° C | 43% | 990 hPa | - | - | - | - |
| 1777655157 | 18.33° C | 43% | 990 hPa | - | - | - | - |
| 1777654256 | 17.78° C | 45% | 990 hPa | - | - | - | - |
| 1777653354 | 17.22° C | 45% | 990 hPa | - | - | - | - |
| 1777652453 | 16.67° C | 44% | 990 hPa | - | - | - | - |
| 1777651552 | 16.11° C | 47% | 990 hPa | - | - | - | - |
| 1777650651 | 16.11° C | 46% | 990 hPa | - | - | - | - |
| 1777649750 | 15.56° C | 49% | 990 hPa | - | - | - | - |
| 1777648849 | 15° C | 44% | 990 hPa | - | - | - | - |
| 1777647948 | 14.44° C | 47% | 990 hPa | - | - | - | - |
| 1777647047 | 14.44° C | 43% | 990 hPa | - | - | - | - |
| 1777646146 | 13.89° C | 45% | 990 hPa | - | - | - | - |
| 1777645245 | 13.89° C | 43% | 990 hPa | - | - | - | - |
| 1777644344 | 13.89° C | 44% | 990 hPa | - | - | - | - |
| 1777643442 | 13.33° C | 42% | 990 hPa | - | - | - | - |
| 1777642541 | 13.33° C | 45% | 990 hPa | - | - | - | - |
* Rain since midnight (hover to see other rain measurements)
** Current wind speed in m/s (hover to see current wind gust speed)